This is the latest recevied weather packets stored in our database for station/object K5RNB. If no packets are shown the sender has not sent any weather packets the latest 10 day(s).
| Time | Temp. | Humidity | Pressure | Rain* | Wind** | Luminosity | Snow |
|---|---|---|---|---|---|---|---|
| 1777280995 | 23.89° C | 85% | 1002.9 hPa | 0 mm | - | - | - |
| 1777280395 | 23.89° C | 86% | 1003.2 hPa | 0 mm | - | - | - |
| 1777278895 | 23.89° C | 85% | 1002.9 hPa | 0 mm | - | - | - |
| 1777277995 | 23.89° C | 86% | 1002.9 hPa | 0 mm | - | - | - |
| 1777277695 | 23.89° C | 86% | 1003 hPa | 0 mm | - | - | - |
| 1777275595 | 23.89° C | 85% | 1002.7 hPa | 0 mm | - | - | - |
| 1777274695 | 23.89° C | 85% | 1002.7 hPa | 0 mm | - | - | - |
| 1777271396 | 24.44° C | 83% | 1003.2 hPa | 0 mm | - | - | - |
| 1777271095 | 25° C | 83% | 1003.2 hPa | 0 mm | - | - | - |
| 1777269595 | 25° C | 82% | 1003.4 hPa | 0 mm | - | - | - |
| 1777265098 | 25.56° C | 80% | 1003.5 hPa | 0 mm | - | - | - |
| 1777264496 | 25.56° C | 80% | 1003.7 hPa | 0 mm | - | - | - |
| 1777263896 | 25.56° C | 80% | 1003.6 hPa | 0 mm | - | - | - |
| 1777263597 | 25.56° C | 80% | 1003.6 hPa | 0 mm | - | - | - |
| 1777262696 | 25.56° C | 81% | 1003.7 hPa | 0 mm | - | - | - |
| 1777262096 | 25.56° C | 81% | 1003.7 hPa | 0 mm | - | - | - |
| 1777258197 | 26.11° C | 79% | 1003.4 hPa | 0 mm | - | - | - |
| 1777257297 | 25.56° C | 80% | 1003.8 hPa | 0 mm | - | - | - |
| 1777256397 | 26.11° C | 79% | 1003.8 hPa | 0 mm | - | - | - |
| 1777255197 | 26.67° C | 77% | 1003.5 hPa | 0 mm | - | - | - |
| 1777254297 | 26.67° C | 77% | 1003.4 hPa | 0 mm | - | - | - |
| 1777253697 | 26.11° C | 78% | 1003.1 hPa | 0 mm | - | - | - |
| 1777251297 | 26.67° C | 78% | 1002.6 hPa | 0 mm | - | - | - |
| 1777250097 | 27.22° C | 76% | 1002.8 hPa | 0 mm | - | - | - |
| 1777249198 | 27.78° C | 75% | 1002.6 hPa | 0 mm | - | - | - |
* Rain latest hour (hover to see other rain measurements)
** Current wind speed in m/s (hover to see current wind gust speed)